Date,TemperatureHighF,TemperatureAvgF,TemperatureLowF,DewpointHighF,DewpointAvgF,DewpointLowF,HumidityHigh,HumidityAvg,HumidityLow,PressureMaxIn,PressureMinIn,WindSpeedMaxMPH,WindSpeedAvgMPH,GustSpeedMaxMPH,PrecipitationSumIn
2013-2-1,24,15,8,-6,-20,-27,30,20,18,27.46,27.02,0,0,0,0.00
2013-2-2,24,17,8,-10,-19,-27,22,19,17,27.43,27.17,0,0,0,0.00
2013-2-3,30,24,17,-4,-11,-20,30,21,17,27.17,27.02,0,0,0,0.00
2013-2-4,32,24,14,10,-11,-21,40,21,17,27.23,27.08,0,0,0,0.00
2013-2-5,37,34,31,13,6,-4,41,30,20,27.17,27.05,0,0,0,0.00
2013-2-6,33,30,24,12,-1,-10,44,27,18,27.49,27.14,0,0,0,0.00
2013-2-7,32,27,23,-1,-10,-14,28,20,18,27.55,27.35,0,0,0,0.00
2013-2-8,37,30,23,16,3,-14,45,32,18,27.35,27.02,0,0,0,0.00
2013-2-9,32,25,21,-7,-11,-16,27,19,17,27.55,27.14,0,0,0,0.00
2013-2-10,38,30,22,-4,-9,-17,20,18,16,27.58,27.37,0,0,0,0.00
2013-2-11,58,45,32,33,9,-6,55,27,12,27.37,27.02,0,0,0,0.00
2013-2-12,48,40,34,1,-3,-7,18,16,14,27.23,27.11,0,0,0,0.00
2013-2-13,39,33,30,12,-2,-8,46,24,16,27.20,26.90,0,0,0,0.00
2013-2-14,40,33,24,12,-2,-12,46,23,16,27.23,27.02,0,0,0,0.00
2013-2-15,46,37,30,12,0,-6,42,22,15,27.29,27.20,0,0,0,0.00
2013-2-16,32,26,18,3,-8,-19,36,22,17,27.20,27.02,0,0,0,0.00
2013-2-17,21,16,13,-14,-19,-23,21,19,17,27.32,27.02,0,0,0,0.00
2013-2-18,36,25,11,-5,-13,-24,20,18,17,27.49,27.32,0,0,0,0.00
2013-2-19,44,35,27,13,-2,-12,42,21,15,27.32,26.96,0,0,0,0.00
2013-2-20,28,22,14,-10,-15,-21,20,19,17,27.17,27.05,0,0,0,0.00
2013-2-21,29,21,14,-10,-16,-22,20,19,17,27.17,27.17,0,0,0,0.00
2013-2-22,26,24,22,5,-6,-14,42,29,19,27.17,27.17,0,0,0,0.00
2013-2-23,45,35,26,24,9,-1,52,35,15,27.17,27.17,0,0,0,0.00
2013-2-24,42,33,23,18,0,-14,52,27,16,27.17,27.17,0,0,0,0.00
2013-2-25,37,29,22,-4,-9,-14,20,18,16,27.17,27.17,0,0,0,0.00
2013-2-26,34,30,27,22,4,-11,62,37,18,27.17,27.17,0,0,0,0.00
2013-2-27,44,36,32,27,8,-13,64,38,10,27.17,27.17,0,0,0,0.00
2013-2-28,34,32,30,4,-7,-9,27,19,17,27.17,27.17,0,0,0,0.00